EW3644 Weather Reports


Display with metric or nautical units.
time (UTC)temp
F
wind
direction
speed
MPH
gust
MPH
rain 1hr
in
rain 24hr
in
rain mn
in
humidity
%
barometer
mb
20200329064912 50 360 6.0 14.0 0.00 0.00 0.00 36 1019.9
20200329064423 50 360 6.0 11.0 0.00 0.00 0.00 34 1019.9
20200329063914 50 11 6.0 12.0 0.00 0.00 0.00 32 1019.8
20200329063425 50 18 4.0 13.0 0.00 0.00 0.00 31 1019.7
20200329062921 50 360 5.0 13.0 0.00 0.00 0.00 31 1019.8
20200329062412 50 340 6.0 11.0 0.00 0.00 0.00 30 1019.8
20200329061922 51 32 2.0 5.0 0.00 0.00 0.00 30 1019.8
20200329061413 51 38 2.0 7.0 0.00 0.00 0.00 29 1019.6
20200329060925 52 38 3.0 15.0 0.00 0.00 0.00 28 1019.5
20200329060417 53 360 3.0 15.0 0.00 0.00 0.00 27 1019.3
20200329055908 53 360 7.0 16.0 0.00 0.00 0.00 27 1019.2
20200329055420 54 360 7.0 16.0 0.00 0.00 0.00 25 1018.9
20200329054915 54 360 8.0 13.0 0.00 0.00 0.00 25 1018.9
20200329054428 54 360 9.0 13.0 0.00 0.00 0.00 25 1018.9
20200329053919 54 360 8.0 14.0 0.00 0.00 0.00 25 1018.9
20200329053411 54 360 8.0 14.0 0.00 0.00 0.00 25 1018.8
20200329052922 54 360 8.0 12.0 0.00 0.00 0.00 25 1018.9
20200329052413 54 360 9.0 14.0 0.00 0.00 0.00 25 1018.9
20200329051924 54 360 8.0 14.0 0.00 0.00 0.00 25 1018.9
20200329050917 54 360 9.0 13.0 0.00 0.00 0.00 25 1018.8
20200329050409 54 137 8.0 12.0 0.00 0.00 0.00 25 1018.7
20200329045921 54 103 9.0 12.0 0.00 0.00 0.00 24 1018.6
20200329045412 54 360 9.0 12.0 0.00 0.00 0.00 24 1018.5
20200329044923 54 99 7.0 12.0 0.00 0.00 0.00 25 1018.5
20200329044415 54 360 8.0 12.0 0.00 0.00 0.00 25 1018.4
20200329043927 54 360 6.0 12.0 0.00 0.00 0.00 25 1018.5
20200329043419 54 83 7.0 12.0 0.00 0.00 0.00 24 1018.4
20200329042915 55 360 6.0 12.0 0.00 0.00 0.00 24 1018.3
20200329042426 55 360 6.0 10.0 0.00 0.00 0.00 24 1018.4
20200329041918 55 123 3.0 9.0 0.00 0.00 0.00 25 1018.3
20200329041409 55 360 2.0 7.0 0.00 0.00 0.00 25 1018.3
20200329040922 55 80 3.0 8.0 0.00 0.00 0.00 24 1018.2
20200329040412 55 360 3.0 9.0 0.00 0.00 0.00 24 1018.2
20200329035923 55 78 3.0 7.0 0.00 0.00 0.00 24 1018.2
20200329034918 56 76 2.0 7.0 0.00 0.00 0.00 23 1018.0
20200329034409 56 72 2.0 9.0 0.00 0.00 0.00 23 1017.9
20200329033921 57 360 3.0 10.0 0.00 0.00 0.00 22 1017.8
20200329033411 58 126 4.0 10.0 0.00 0.00 0.00 21 1017.7
20200329032923 58 360 6.0 12.0 0.00 0.00 0.00 21 1017.6
20200329032415 58 75 8.0 12.0 0.00 0.00 0.00 20 1017.5
20200329031927 58 360 7.0 12.0 0.00 0.00 0.00 20 1017.5
20200329031417 58 360 8.0 11.0 0.00 0.00 0.00 20 1017.4
20200329030912 59 360 8.0 12.0 0.00 0.00 0.00 20 1017.3
20200329030425 59 360 8.0 13.0 0.00 0.00 0.00 20 1017.2
20200329025916 58 360 8.0 12.0 0.00 0.00 0.00 20 1017.1
20200329025427 58 105 7.0 11.0 0.00 0.00 0.00 21 1017.1
20200329024919 59 123 7.0 12.0 0.00 0.00 0.00 21 1017.0
20200329024411 59 360 4.0 11.0 0.00 0.00 0.00 20 1017.0
20200329023923 59 360 6.0 11.0 0.00 0.00 0.00 20 1016.9
20200329023414 60 360 6.0 10.0 0.00 0.00 0.00 19 1016.7
20200329022910 60 360 7.0 12.0 0.00 0.00 0.00 19 1016.6
20200329022422 60 360 7.0 16.0 0.00 0.00 0.00 19 1016.5
20200329021914 60 360 8.0 12.0 0.00 0.00 0.00 19 1016.4
20200329021425 60 360 7.0 12.0 0.00 0.00 0.00 19 1016.4
20200329020915 60 360 7.0 14.0 0.00 0.00 0.00 18 1016.2
20200329020427 60 360 9.0 15.0 0.00 0.00 0.00 18 1016.1
20200329015918 60 360 9.0 15.0 0.00 0.00 0.00 18 1016.1
20200329015409 61 360 10.0 17.0 0.00 0.00 0.00 18 1016.0
20200329014920 61 360 11.0 17.0 0.00 0.00 0.00 18 1015.9
20200329014416 61 360 11.0 19.0 0.00 0.00 0.00 18 1015.8
20200329013927 61 360 12.0 19.0 0.00 0.00 0.00 18 1015.7
20200329013419 61 360 13.0 18.0 0.00 0.00 0.00 18 1015.4
20200329012910 61 360 12.0 16.0 0.00 0.00 0.00 18 1015.4
20200329012422 62 360 11.0 19.0 0.00 0.00 0.00 18 1015.4
20200329011913 62 360 13.0 22.0 0.00 0.00 0.00 17 1015.4
20200329011424 62 360 11.0 22.0 0.00 0.00 0.00 17 1015.4
20200329010916 62 360 13.0 22.0 0.00 0.00 0.00 17 1015.4
20200329010413 63 360 11.0 20.0 0.00 0.00 0.00 16 1015.3
20200329005925 63 360 10.0 22.0 0.00 0.00 0.00 16 1015.3
20200329005416 63 360 12.0 27.0 0.00 0.00 0.00 16 1015.4
20200329004927 63 360 14.0 24.0 0.00 0.00 0.00 16 1015.2
20200329004419 63 360 15.0 24.0 0.00 0.00 0.00 16 1015.2
20200329003909 64 360 14.0 21.0 0.00 0.00 0.00 16 1015.1
20200329003421 64 360 13.0 20.0 0.00 0.00 0.00 16 1015.1
20200329002913 64 360 10.0 21.0 0.00 0.00 0.00 16 1015.1
20200329002428 64 360 15.0 22.0 0.00 0.00 0.00 15 1015.0
20200329001919 64 360 13.0 26.0 0.00 0.00 0.00 15 1014.9
20200329001410 64 360 13.0 26.0 0.00 0.00 0.00 15 1014.7
20200329000921 64 360 11.0 25.0 0.00 0.00 0.00 16 1014.7
20200329000412 64 360 14.0 31.0 0.00 0.00 0.00 16 1014.7
20200328235924 64 360 20.0 31.0 0.00 0.00 0.00 16 1014.6
20200328235416 64 360 9.0 23.0 0.00 0.00 0.00 16 1014.5
20200328234928 64 360 16.0 23.0 0.00 0.00 0.00 16 1014.5
20200328234424 64 360 9.0 24.0 0.00 0.00 0.00 16 1014.4
20200328233916 64 360 15.0 28.0 0.00 0.00 0.00 15 1014.3
20200328233427 64 360 16.0 23.0 0.00 0.00 0.00 15 1014.3
20200328232920 65 360 10.0 22.0 0.00 0.00 0.00 14 1014.2
20200328232412 64 360 10.0 26.0 0.00 0.00 0.00 15 1014.2
20200328231923 64 360 17.0 26.0 0.00 0.00 0.00 14 1014.0
20200328231415 64 360 12.0 26.0 0.00 0.00 0.00 14 1014.1
20200328230927 64 360 17.0 26.0 0.00 0.00 0.00 13 1014.0
20200328230422 64 360 15.0 25.0 0.00 0.00 0.00 14 1014.0
20200328225913 64 360 13.0 24.0 0.00 0.00 0.00 14 1014.0
20200328225424 64 360 10.0 26.0 0.00 0.00 0.00 14 1014.0
20200328224915 64 360 14.0 27.0 0.00 0.00 0.00 15 1013.8
20200328224427 64 360 18.0 27.0 0.00 0.00 0.00 14 1013.8
20200328223919 64 360 10.0 27.0 0.00 0.00 0.00 15 1013.8
20200328223410 63 360 14.0 27.0 0.00 0.00 0.00 16 1013.8
20200328222922 64 360 17.0 25.0 0.00 0.00 0.00 16 1013.7
20200328222416 64 360 13.0 22.0 0.00 0.00 0.00 15 1013.7
20200328221928 63 360 14.0 24.0 0.00 0.00 0.00 16 1013.5
20200328221418 63 360 14.0 24.0 0.00 0.00 0.00 16 1013.6
20200328220910 63 360 12.0 24.0 0.00 0.00 0.00 16 1013.6
20200328220422 63 360 12.0 28.0 0.00 0.00 0.00 16 1013.6
20200328215913 63 360 18.0 32.0 0.00 0.00 0.00 16 1013.5
20200328215425 63 360 13.0 32.0 0.00 0.00 0.00 16 1013.5
20200328214917 63 360 10.0 23.0 0.00 0.00 0.00 15 1013.6
20200328214413 63 360 9.0 21.0 0.00 0.00 0.00 15 1013.5
20200328213925 63 360 9.0 27.0 0.00 0.00 0.00 16 1013.5
20200328213417 62 360 17.0 31.0 0.00 0.00 0.00 16 1013.5
20200328212928 63 360 16.0 28.0 0.00 0.00 0.00 16 1013.5
20200328212419 62 360 15.0 28.0 0.00 0.00 0.00 17 1013.5
20200328211911 62 360 15.0 26.0 0.00 0.00 0.00 16 1013.4
20200328211422 62 360 15.0 26.0 0.00 0.00 0.00 16 1013.3
20200328210411 62 360 20.0 28.0 0.00 0.00 0.00 16 1013.5
20200328205923 62 360 10.0 26.0 0.00 0.00 0.00 18 1013.4
20200328205419 62 360 14.0 26.0 0.00 0.00 0.00 17 1013.5
20200328204911 61 360 18.0 34.0 0.00 0.00 0.00 17 1013.5
20200328204422 62 360 22.0 34.0 0.00 0.00 0.00 17 1013.4
20200328203913 61 360 16.0 27.0 0.00 0.00 0.00 17 1013.6
20200328203424 61 360 12.0 23.0 0.00 0.00 0.00 18 1013.5
20200328202916 61 360 16.0 26.0 0.00 0.00 0.00 17 1013.5
20200328202428 61 360 14.0 28.0 0.00 0.00 0.00 17 1013.6
20200328201919 61 360 20.0 33.0 0.00 0.00 0.00 18 1013.5
20200328201415 61 360 22.0 33.0 0.00 0.00 0.00 17 1013.4
20200328200927 61 360 14.0 26.0 0.00 0.00 0.00 18 1013.6
20200328200418 60 360 14.0 31.0 0.00 0.00 0.00 18 1013.6
20200328195910 60 360 20.0 30.0 0.00 0.00 0.00 17 1013.7
20200328195422 60 360 15.0 27.0 0.00 0.00 0.00 19 1013.7
20200328194913 60 360 16.0 30.0 0.00 0.00 0.00 18 1013.7
20200328194425 59 213 10.0 31.0 0.00 0.00 0.00 19 1013.7
20200328193916 59 360 17.0 31.0 0.00 0.00 0.00 20 1013.7
20200328193412 59 360 20.0 31.0 0.00 0.00 0.00 18 1013.9
20200328192924 59 360 18.0 31.0 0.00 0.00 0.00 20 1013.7
20200328192415 59 360 20.0 29.0 0.00 0.00 0.00 19 1013.7
20200328191927 59 334 11.0 27.0 0.00 0.00 0.00 21 1013.7
20200328191419 59 360 16.0 28.0 0.00 0.00 0.00 21 1013.7
20200328190911 58 360 15.0 30.0 0.00 0.00 0.00 20 1013.7
20200328190423 58 360 18.0 30.0 0.00 0.00 0.00 23 1013.8
20200328185915 58 360 17.0 30.0 0.00 0.00 0.00 23 1013.9
20200328185411 58 360 19.0 28.0 0.00 0.00 0.00 23 1013.9
20200328184922 58 360 11.0 28.0 0.00 0.00 0.00 23 1013.9
20200328184414 57 360 12.0 27.0 0.00 0.00 0.00 24 1014.0
20200328183926 57 360 18.0 31.0 0.00 0.00 0.00 24 1014.2
20200328183418 57 360 18.0 31.0 0.00 0.00 0.00 24 1014.2
20200328182909 57 360 18.0 28.0 0.00 0.00 0.00 24 1014.2
20200328182422 56 360 18.0 28.0 0.00 0.00 0.00 25 1014.4
20200328181912 56 360 19.0 30.0 0.00 0.00 0.00 25 1014.3
20200328181423 56 360 19.0 32.0 0.00 0.00 0.00 25 1014.4
20200328180916 56 360 12.0 32.0 0.00 0.00 0.00 25 1014.5
20200328180428 56 160 14.0 27.0 0.00 0.00 0.00 26 1014.6
20200328175920 56 360 20.0 32.0 0.00 0.00 0.00 24 1014.7
20200328175412 56 360 21.0 32.0 0.00 0.00 0.00 26 1014.8
20200328174923 56 360 12.0 26.0 0.00 0.00 0.00 25 1014.9
20200328174415 56 360 14.0 28.0 0.00 0.00 0.00 26 1014.9
20200328173926 55 348 17.0 28.0 0.00 0.00 0.00 26 1014.9
20200328173418 55 360 10.0 29.0 0.00 0.00 0.00 26 1014.9
20200328172913 55 360 14.0 34.0 0.00 0.00 0.00 26 1014.8
20200328172425 54 360 22.0 37.0 0.00 0.00 0.00 26 1015.0
20200328171916 54 360 21.0 33.0 0.00 0.00 0.00 26 1014.9
20200328171427 54 360 25.0 33.0 0.00 0.00 0.00 26 1014.8
20200328170917 55 360 22.0 33.0 0.00 0.00 0.00 26 1014.8
20200328170429 54 360 21.0 32.0 0.00 0.00 0.00 28 1014.6
20200328165919 54 360 20.0 32.0 0.00 0.00 0.00 27 1014.7
20200328165410 53 360 24.0 34.0 0.00 0.00 0.00 28 1014.5
20200328164925 54 360 23.0 34.0 0.00 0.00 0.00 28 1014.5
20200328164415 53 360 22.0 33.0 0.00 0.00 0.00 29 1014.5
20200328163927 53 360 18.0 34.0 0.00 0.00 0.00 29 1014.7
20200328163419 53 360 20.0 34.0 0.00 0.00 0.00 29 1014.7
20200328162910 52 360 23.0 33.0 0.00 0.00 0.00 30 1014.7
20200328162422 52 360 21.0 34.0 0.00 0.00 0.00 30 1014.7
20200328161914 52 360 26.0 36.0 0.00 0.00 0.00 30 1014.6
20200328161426 52 360 23.0 36.0 0.00 0.00 0.00 31 1014.6
20200328160922 52 360 12.0 30.0 0.00 0.00 0.00 32 1014.7
20200328160413 52 287 17.0 33.0 0.00 0.00 0.00 32 1014.6
20200328155925 51 360 17.0 41.0 0.00 0.00 0.00 32 1014.4
20200328155417 51 360 27.0 41.0 0.00 0.00 0.00 32 1014.2
20200328154909 51 212 27.0 39.0 0.00 0.00 0.00 32 1014.4
20200328154421 51 360 30.0 39.0 0.00 0.00 0.00 32 1014.6
20200328153912 50 360 22.0 42.0 0.00 0.00 0.00 33 1014.4
20200328153423 50 360 31.0 43.0 0.00 0.00 0.00 32 1014.3
20200328152917 50 360 27.0 43.0 0.00 0.00 0.00 34 1014.2
20200328152409 50 360 30.0 41.0 0.00 0.00 0.00 34 1014.2
20200328151921 50 360 25.0 42.0 0.00 0.00 0.00 34 1014.2
20200328151412 49 360 30.0 48.0 0.00 0.00 0.00 35 1014.1
20200328150925 49 360 31.0 48.0 0.00 0.00 0.00 35 1014.0
20200328150416 49 360 33.0 43.0 0.00 0.00 0.00 35 1012.8
20200328145908 49 360 22.0 46.0 0.00 0.00 0.00 36 1013.8
20200328145420 49 360 27.0 46.0 0.00 0.00 0.00 36 1013.8
20200328144917 49 360 32.0 42.0 0.00 0.00 0.00 36 1013.8
20200328144409 48 360 31.0 47.0 0.00 0.00 0.00 37 1013.7
20200328143920 48 360 29.0 47.0 0.00 0.00 0.00 37 1013.7
20200328143411 48 360 31.0 46.0 0.00 0.00 0.00 37 1013.6
20200328142923 48 360 27.0 46.0 0.00 0.00 0.00 38 1013.4
20200328142415 48 360 26.0 38.0 0.00 0.00 0.00 38 1013.4
20200328141927 48 360 22.0 40.0 0.00 0.00 0.00 38 1013.3
20200328141418 47 360 27.0 40.0 0.00 0.00 0.00 39 1013.3
20200328140913 47 360 23.0 40.0 0.00 0.00 0.00 39 1013.2
20200328140425 47 360 21.0 40.0 0.00 0.00 0.00 39 1013.5
20200328135916 47 360 19.0 30.0 0.00 0.00 0.00 39 1013.5
20200328135428 46 360 17.0 32.0 0.00 0.00 0.00 40 1013.5
20200328134919 46 131 14.0 31.0 0.00 0.00 0.00 40 1013.5
20200328134411 46 360 21.0 36.0 0.00 0.00 0.00 40 1013.4
20200328133923 46 360 22.0 36.0 0.00 0.00 0.00 41 1013.6
20200328133415 45 360 16.0 36.0 0.00 0.00 0.00 41 1013.4
20200328132910 45 265 17.0 34.0 0.00 0.00 0.00 41 1013.2
20200328132421 45 360 19.0 31.0 0.00 0.00 0.00 41 1013.0
20200328131912 45 360 18.0 31.0 0.00 0.00 0.00 41 1013.1
20200328131424 45 360 16.0 35.0 0.00 0.00 0.00 41 1013.2
20200328130915 45 360 15.0 35.0 0.00 0.00 0.00 41 1013.1
20200328130426 45 360 18.0 32.0 0.00 0.00 0.00 41 1012.8
20200328125918 45 124 18.0 31.0 0.00 0.00 0.00 41 1012.9
20200328125410 45 360 14.0 31.0 0.00 0.00 0.00 41 1012.9
20200328124921 45 254 15.0 33.0 0.00 0.00 0.00 41 1012.8
20200328124418 45 134 19.0 34.0 0.00 0.00 0.00 41 1012.4
20200328123909 45 360 17.0 34.0 0.00 0.00 0.00 41 1012.8
20200328123421 45 225 19.0 32.0 0.00 0.00 0.00 40 1012.6
20200328122912 45 360 19.0 32.0 0.00 0.00 0.00 40 1012.7
20200328122424 45 360 17.0 35.0 0.00 0.00 0.00 40 1012.7
20200328121916 45 360 16.0 35.0 0.00 0.00 0.00 40 1012.3
20200328121428 45 360 19.0 30.0 0.00 0.00 0.00 40 1011.7
20200328120918 46 229 20.0 30.0 0.00 0.00 0.00 40 1011.7
20200328120413 46 360 17.0 36.0 0.00 0.00 0.00 39 1012.1
20200328115925 46 360 21.0 36.0 0.00 0.00 0.00 39 1011.8
20200328115416 46 257 20.0 34.0 0.00 0.00 0.00 38 1011.9
20200328114927 46 360 20.0 30.0 0.00 0.00 0.00 38 1011.9
20200328114418 46 360 17.0 36.0 0.00 0.00 0.00 38 1012.2
20200328113908 46 360 20.0 36.0 0.00 0.00 0.00 38 1012.2
20200328113420 46 262 20.0 35.0 0.00 0.00 0.00 38 1011.9
20200328112414 46 360 20.0 37.0 0.00 0.00 0.00 38 1011.7
20200328111926 46 360 24.0 37.0 0.00 0.00 0.00 37 1011.5
20200328111418 46 360 19.0 31.0 0.00 0.00 0.00 37 1011.8
20200328110910 46 360 20.0 30.0 0.00 0.00 0.00 37 1011.7
20200328110422 46 360 21.0 30.0 0.00 0.00 0.00 36 1011.8
20200328105913 46 360 19.0 29.0 0.00 0.00 0.00 36 1011.8
20200328105425 46 360 21.0 29.0 0.00 0.00 0.00 36 1011.0
20200328104916 47 360 18.0 31.0 0.00 0.00 0.00 35 1011.4
20200328104412 47 360 20.0 31.0 0.00 0.00 0.00 35 1011.4
20200328103923 47 360 17.0 28.0 0.00 0.00 0.00 34 1011.7
20200328103415 47 360 20.0 28.0 0.00 0.00 0.00 34 1011.5
20200328102926 47 242 19.0 28.0 0.00 0.00 0.00 34 1011.4
20200328102418 47 360 17.0 26.0 0.00 0.00 0.00 33 1011.3
20200328101909 47 360 16.0 27.0 0.00 0.00 0.00 33 1011.0
20200328101421 48 360 18.0 33.0 0.00 0.00 0.00 33 1011.1
20200328100912 48 360 20.0 33.0 0.00 0.00 0.00 33 1011.2
20200328100429 48 360 19.0 26.0 0.00 0.00 0.00 33 1011.1
20200328095917 48 360 21.0 33.0 0.00 0.00 0.00 32 1010.8
20200328095410 48 258 21.0 43.0 0.00 0.00 0.00 32 1010.7
20200328094920 48 360 26.0 43.0 0.00 0.00 0.00 32 1009.9
20200328094411 49 243 32.0 43.0 0.00 0.00 0.00 31 1008.5
20200328093922 49 360 31.0 43.0 0.00 0.00 0.00 31 1008.2
20200328092912 49 360 21.0 34.0 0.00 0.00 0.00 30 1009.7
20200328092428 49 360 20.0 34.0 0.00 0.00 0.00 30 1010.0
20200328091416 50 360 16.0 37.0 0.00 0.00 0.00 30 1011.0
20200328090927 50 360 22.0 37.0 0.00 0.00 0.00 29 1010.3
20200328090419 50 360 20.0 34.0 0.00 0.00 0.00 30 1010.5
20200328085911 50 360 22.0 34.0 0.00 0.00 0.00 29 1010.0
20200328085424 50 360 22.0 33.0 0.00 0.00 0.00 29 1009.7
20200328084914 50 360 20.0 33.0 0.00 0.00 0.00 29 1010.3
20200328084411 51 360 20.0 32.0 0.00 0.00 0.00 29 1010.0
20200328083922 51 360 22.0 32.0 0.00 0.00 0.00 29 1009.9
20200328083413 51 360 21.0 31.0 0.00 0.00 0.00 29 1010.1
20200328082925 51 360 21.0 31.0 0.00 0.00 0.00 29 1009.9
20200328082417 51 360 20.0 27.0 0.00 0.00 0.00 30 1010.2
20200328081910 52 360 21.0 32.0 0.00 0.00 0.00 30 1010.2
20200328081421 52 360 16.0 32.0 0.00 0.00 0.00 29 1010.3
20200328080911 52 360 18.0 29.0 0.00 0.00 0.00 29 1010.3
20200328080428 53 360 19.0 29.0 0.00 0.00 0.00 29 1010.5
20200328075919 53 360 17.0 29.0 0.00 0.00 0.00 29 1010.6
20200328075410 54 360 22.0 30.0 0.00 0.00 0.00 29 1010.4
20200328074922 54 360 22.0 33.0 0.00 0.00 0.00 29 1010.5
20200328074414 54 360 20.0 33.0 0.00 0.00 0.00 30 1010.1
20200328073925 55 360 16.0 25.0 0.00 0.00 0.00 30 1010.0
20200328073416 55 360 19.0 25.0 0.00 0.00 0.00 30 1010.3
20200328072908 55 360 16.0 24.0 0.00 0.00 0.00 30 1010.3
20200328072424 56 360 16.0 28.0 0.00 0.00 0.00 30 1010.0
20200328071916 56 360 19.0 28.0 0.00 0.00 0.00 29 1009.8
20200328071428 56 360 17.0 29.0 0.00 0.00 0.00 29 1009.8
20200328070918 56 360 18.0 29.0 0.00 0.00 0.00 29 1009.8
20200328070409 56 360 18.0 34.0 0.00 0.00 0.00 28 1009.8
20200328065921 57 360 25.0 34.0 0.00 0.00 0.00 28 1008.8
20200328065413 57 360 20.0 30.0 0.00 0.00 0.00 29 1009.7